BAW1 EGLL-KJFK

Flight info

Callsign BAW1
Flight time 3h 21m
Altitude 60000
Route MODMI DCT ORTAC DCT TAKAS DCT 4941N01500W 4949N02000W 4926N03000W 4810N04000W 4554N05000W 4510N05230W 4307N06000W 4025N06700W 3952N06815W DCT LINND
Aircraft CONC/H-SDFHIRW/C

Departure

Time 2026-05-06 13:47
Airport London Heathrow Airport (EGLL)

Arrival

Time 2026-05-06 17:09
Airport John F. Kennedy International Airport (KJFK)
Time Latitude Longitude Altitude Speed Heading
2026-05-06 13:02 51.46203 -0.44411 87 ft 0 kts 294°
2026-05-06 13:30 51.46201 -0.44402 87 ft 2 kts 294°
2026-05-06 13:30 51.46195 -0.44380 87 ft 2 kts 294°
2026-05-06 13:31 51.46189 -0.44358 87 ft 2 kts 294°
2026-05-06 13:31 51.46181 -0.44339 87 ft 2 kts 317°
2026-05-06 13:31 51.46169 -0.44325 87 ft 2 kts 335°
2026-05-06 13:31 51.46154 -0.44319 87 ft 2 kts 355°
2026-05-06 13:32 51.46140 -0.44321 88 ft 2 kts 14°
2026-05-06 13:32 51.46131 -0.44325 88 ft 1 kts 27°
2026-05-06 13:32 51.46128 -0.44328 88 ft 0 kts 24°
2026-05-06 13:36 51.46147 -0.44315 88 ft 10 kts 23°
2026-05-06 13:37 51.46262 -0.44240 87 ft 19 kts 12°
2026-05-06 13:37 51.46323 -0.44362 87 ft 16 kts 276°
2026-05-06 13:37 51.46322 -0.44606 87 ft 26 kts 264°
2026-05-06 13:37 51.46317 -0.44911 87 ft 26 kts 271°
2026-05-06 13:38 51.46315 -0.45221 87 ft 29 kts 269°
2026-05-06 13:38 51.46322 -0.45645 84 ft 42 kts 275°
2026-05-06 13:38 51.46323 -0.46095 87 ft 41 kts 271°
2026-05-06 13:38 51.46325 -0.46569 86 ft 43 kts 272°
2026-05-06 13:39 51.46321 -0.46928 82 ft 24 kts 271°
2026-05-06 13:39 51.46320 -0.47191 81 ft 22 kts 269°
2026-05-06 13:39 51.46333 -0.47409 84 ft 17 kts 278°
2026-05-06 13:39 51.46330 -0.47630 84 ft 22 kts 252°
2026-05-06 13:40 51.46250 -0.47972 80 ft 25 kts 270°
2026-05-06 13:40 51.46250 -0.48155 80 ft 23 kts 270°
2026-05-06 13:40 51.46249 -0.48404 80 ft 20 kts 270°
2026-05-06 13:40 51.46262 -0.48613 80 ft 16 kts 293°
2026-05-06 13:41 51.46286 -0.48678 81 ft 0 kts 309°
2026-05-06 13:44 51.46293 -0.48689 80 ft 5 kts 314°
2026-05-06 13:44 51.46368 -0.48748 80 ft 18 kts 351°
2026-05-06 13:44 51.46476 -0.48668 81 ft 17 kts 84°
2026-05-06 13:44 51.46477 -0.48611 80 ft 0 kts 89°
2026-05-06 13:46 51.46478 -0.48580 80 ft 13 kts 90°
2026-05-06 13:46 51.46480 -0.48194 80 ft 69 kts 89°
2026-05-06 13:46 51.46484 -0.46984 81 ft 149 kts 89°
2026-05-06 13:46 51.46491 -0.44952 117 ft 215 kts 91°
2026-05-06 13:47 51.46385 -0.42366 394 ft 247 kts 95°
2026-05-06 13:47 51.46125 -0.39438 807 ft 288 kts 104°
2026-05-06 13:47 51.45313 -0.36558 2144 ft 300 kts 129°
2026-05-06 13:47 51.43797 -0.34208 3429 ft 325 kts 146°
2026-05-06 13:48 51.41787 -0.32691 4619 ft 332 kts 170°
2026-05-06 13:48 51.39530 -0.32667 5529 ft 333 kts 200°
2026-05-06 13:48 51.37558 -0.34371 6635 ft 329 kts 229°
2026-05-06 13:48 51.36096 -0.37129 7776 ft 331 kts 225°
2026-05-06 13:49 51.34302 -0.39418 8808 ft 339 kts 213°
2026-05-06 13:49 51.32296 -0.41297 9817 ft 347 kts 210°
2026-05-06 13:49 51.30158 -0.43121 10823 ft 355 kts 209°
2026-05-06 13:49 51.27935 -0.44922 11825 ft 363 kts 208°
2026-05-06 13:50 51.25643 -0.46774 12649 ft 379 kts 208°
2026-05-06 13:50 51.23297 -0.48667 13386 ft 395 kts 212°
2026-05-06 13:50 51.21254 -0.51356 14165 ft 399 kts 238°
2026-05-06 13:50 51.19630 -0.54982 15069 ft 410 kts 225°
2026-05-06 13:51 51.17413 -0.57912 15946 ft 423 kts 222°
2026-05-06 13:51 51.15143 -0.60969 16782 ft 441 kts 221°
2026-05-06 13:51 51.12702 -0.64074 17529 ft 463 kts 220°
2026-05-06 13:51 51.10152 -0.67271 18290 ft 487 kts 219°
2026-05-06 13:52 51.07433 -0.70662 19065 ft 507 kts 219°
2026-05-06 13:52 51.04655 -0.74112 19743 ft 512 kts 219°
2026-05-06 13:52 51.01852 -0.77591 20354 ft 513 kts 219°
2026-05-06 13:52 50.99044 -0.81065 20961 ft 515 kts 219°
2026-05-06 13:53 50.96230 -0.84547 21578 ft 518 kts 219°
2026-05-06 13:53 50.93370 -0.88079 22209 ft 522 kts 219°
2026-05-06 13:53 50.90485 -0.91638 22828 ft 527 kts 219°
2026-05-06 13:53 50.87608 -0.95179 23447 ft 531 kts 219°
2026-05-06 13:54 50.84694 -0.98760 24076 ft 535 kts 219°
2026-05-06 13:54 50.81741 -1.02384 24713 ft 540 kts 219°
2026-05-06 13:54 50.78800 -1.05988 25343 ft 545 kts 219°
2026-05-06 13:54 50.75767 -1.09698 25979 ft 550 kts 219°
2026-05-06 13:55 50.72759 -1.13370 26601 ft 555 kts 219°
2026-05-06 13:55 50.69682 -1.17122 27234 ft 560 kts 219°
2026-05-06 13:55 50.66578 -1.20898 27833 ft 565 kts 219°
2026-05-06 13:55 50.63496 -1.24644 28103 ft 570 kts 219°
2026-05-06 13:56 50.57226 -1.32240 27908 ft 568 kts 219°
2026-05-06 13:56 50.54091 -1.36028 27879 ft 566 kts 219°
2026-05-06 13:56 50.50998 -1.39761 27969 ft 566 kts 219°
2026-05-06 13:57 50.47886 -1.43508 27998 ft 568 kts 219°
2026-05-06 13:57 50.44768 -1.47258 27953 ft 568 kts 219°
2026-05-06 13:57 50.41713 -1.50926 27989 ft 568 kts 219°
2026-05-06 13:57 50.38541 -1.54728 28369 ft 589 kts 219°
2026-05-06 13:58 50.35316 -1.58585 28511 ft 608 kts 219°
2026-05-06 13:58 50.31951 -1.62600 29876 ft 599 kts 219°
2026-05-06 13:58 50.28713 -1.66459 31693 ft 587 kts 218°
2026-05-06 13:58 50.25537 -1.70240 32998 ft 581 kts 218°
2026-05-06 13:59 50.22361 -1.74012 34081 ft 575 kts 218°
2026-05-06 13:59 50.19357 -1.77575 34992 ft 571 kts 218°
2026-05-06 13:59 50.16204 -1.81310 35375 ft 573 kts 218°
2026-05-06 13:59 50.13031 -1.85059 35539 ft 579 kts 218°
2026-05-06 14:00 50.06496 -1.92763 35471 ft 602 kts 218°
2026-05-06 14:00 50.03225 -1.96744 35354 ft 613 kts 225°
2026-05-06 14:00 50.00463 -2.01858 34969 ft 624 kts 240°
2026-05-06 14:01 49.98632 -2.07978 34366 ft 633 kts 256°
2026-05-06 14:01 49.97793 -2.14639 34396 ft 631 kts 261°
2026-05-06 14:01 49.96960 -2.21245 35201 ft 625 kts 259°
2026-05-06 14:01 49.96095 -2.27764 35734 ft 628 kts 259°
2026-05-06 14:02 49.95179 -2.34404 35562 ft 639 kts 259°
2026-05-06 14:02 49.94228 -2.41185 35447 ft 651 kts 259°
2026-05-06 14:02 49.92258 -2.55052 35545 ft 665 kts 259°
2026-05-06 14:03 49.91256 -2.62056 35778 ft 671 kts 259°
2026-05-06 14:03 49.90240 -2.69114 35887 ft 679 kts 258°
2026-05-06 14:03 49.89212 -2.76221 36057 ft 689 kts 258°
2026-05-06 14:03 49.88162 -2.83456 36270 ft 696 kts 258°
2026-05-06 14:04 49.87085 -2.90831 36417 ft 706 kts 258°
2026-05-06 14:04 49.85994 -2.98270 36732 ft 716 kts 258°
2026-05-06 14:04 49.84880 -3.05828 37057 ft 726 kts 258°
2026-05-06 14:04 49.83746 -3.13485 37275 ft 738 kts 258°
2026-05-06 14:05 49.82595 -3.21214 37700 ft 748 kts 258°
2026-05-06 14:05 49.81415 -3.29107 37863 ft 760 kts 258°
2026-05-06 14:05 49.80219 -3.37058 38253 ft 770 kts 258°
2026-05-06 14:05 49.79008 -3.45075 38466 ft 779 kts 258°
2026-05-06 14:06 49.77755 -3.53328 38746 ft 792 kts 257°
2026-05-06 14:06 49.76493 -3.61594 39085 ft 800 kts 257°
2026-05-06 14:06 49.75213 -3.69925 39249 ft 812 kts 257°
2026-05-06 14:06 49.73888 -3.78511 39560 ft 823 kts 257°
2026-05-06 14:07 49.72556 -3.87096 39884 ft 833 kts 257°
2026-05-06 14:07 49.71196 -3.95817 40109 ft 844 kts 257°
2026-05-06 14:07 49.69823 -4.04577 40383 ft 857 kts 257°
2026-05-06 14:07 49.68401 -4.13602 40755 ft 869 kts 257°
2026-05-06 14:08 49.66964 -4.22672 41095 ft 880 kts 257°
2026-05-06 14:08 49.65523 -4.31707 41277 ft 887 kts 257°
2026-05-06 14:08 49.62577 -4.50038 41305 ft 893 kts 257°
2026-05-06 14:09 49.59589 -4.68432 41475 ft 898 kts 256°
2026-05-06 14:09 49.56526 -4.87073 41627 ft 905 kts 256°
2026-05-06 14:10 49.53418 -5.05783 41801 ft 911 kts 256°
2026-05-06 14:10 49.50256 -5.24620 42008 ft 918 kts 256°
2026-05-06 14:11 49.47026 -5.43641 42177 ft 927 kts 256°
2026-05-06 14:11 49.45400 -5.53141 42316 ft 930 kts 256°
2026-05-06 14:11 49.43742 -5.62774 42396 ft 936 kts 256°
2026-05-06 14:12 49.42091 -5.72312 42529 ft 941 kts 255°
2026-05-06 14:12 49.40395 -5.82058 42695 ft 945 kts 255°
2026-05-06 14:12 49.36986 -6.01486 42923 ft 957 kts 255°
2026-05-06 14:13 49.35234 -6.11393 43108 ft 962 kts 255°
2026-05-06 14:13 49.33485 -6.21228 43208 ft 968 kts 255°
2026-05-06 14:13 49.31701 -6.31207 43381 ft 976 kts 255°
2026-05-06 14:13 49.29899 -6.41224 43905 ft 987 kts 255°
2026-05-06 14:14 49.28066 -6.51357 44077 ft 1001 kts 255°
2026-05-06 14:14 49.26199 -6.61617 44588 ft 1010 kts 255°
2026-05-06 14:14 49.24315 -6.71921 44944 ft 1020 kts 255°
2026-05-06 14:14 49.22386 -6.82406 45335 ft 1030 kts 255°
2026-05-06 14:15 49.20445 -6.92901 45725 ft 1039 kts 255°
2026-05-06 14:15 49.18466 -7.03537 46113 ft 1048 kts 255°
2026-05-06 14:15 49.16472 -7.14194 46486 ft 1056 kts 255°
2026-05-06 14:15 49.14429 -7.25050 46849 ft 1064 kts 255°
2026-05-06 14:16 49.12400 -7.35768 47161 ft 1072 kts 255°
2026-05-06 14:16 49.10301 -7.46795 47501 ft 1082 kts 255°
2026-05-06 14:16 49.08192 -7.57808 47892 ft 1090 kts 255°
2026-05-06 14:16 49.06079 -7.68779 48282 ft 1098 kts 254°
2026-05-06 14:17 49.03939 -7.79827 48625 ft 1106 kts 254°
2026-05-06 14:17 49.01970 -7.91056 48938 ft 1113 kts 261°
2026-05-06 14:17 49.00985 -8.02662 49069 ft 1116 kts 269°
2026-05-06 14:17 49.01094 -8.14559 49304 ft 1121 kts 278°
2026-05-06 14:18 49.02319 -8.26113 49544 ft 1124 kts 286°
2026-05-06 14:18 49.04501 -8.37560 49867 ft 1131 kts 284°
2026-05-06 14:18 49.06250 -8.49305 50234 ft 1142 kts 281°
2026-05-06 14:18 49.07727 -8.61196 50793 ft 1152 kts 282°
2026-05-06 14:19 49.09220 -8.73074 51350 ft 1154 kts 281°
2026-05-06 14:19 49.10690 -8.85115 52005 ft 1153 kts 281°
2026-05-06 14:19 49.12122 -8.96930 52607 ft 1153 kts 281°
2026-05-06 14:19 49.13567 -9.08979 53145 ft 1153 kts 281°
2026-05-06 14:20 49.14995 -9.20992 53623 ft 1152 kts 281°
2026-05-06 14:20 49.16394 -9.32865 54046 ft 1152 kts 281°
2026-05-06 14:20 49.17804 -9.44948 54432 ft 1152 kts 281°
2026-05-06 14:20 49.19176 -9.56821 54770 ft 1152 kts 281°
2026-05-06 14:21 49.20546 -9.68793 55073 ft 1152 kts 280°
2026-05-06 14:21 49.21910 -9.80828 55346 ft 1151 kts 280°
2026-05-06 14:21 49.23258 -9.92828 55590 ft 1151 kts 280°
2026-05-06 14:21 49.24585 -10.04770 55808 ft 1151 kts 280°
2026-05-06 14:22 49.25916 -10.16870 56008 ft 1150 kts 280°
2026-05-06 14:22 49.27226 -10.28884 56184 ft 1150 kts 280°
2026-05-06 14:22 49.28525 -10.40922 56340 ft 1150 kts 280°
2026-05-06 14:22 49.29793 -10.52791 56481 ft 1150 kts 280°
2026-05-06 14:23 49.31077 -10.64930 56609 ft 1149 kts 280°
2026-05-06 14:23 49.32321 -10.76825 56721 ft 1149 kts 279°
2026-05-06 14:23 49.33578 -10.88970 56828 ft 1148 kts 279°
2026-05-06 14:23 49.34797 -11.00874 56918 ft 1148 kts 279°
2026-05-06 14:24 49.37230 -11.25002 57089 ft 1148 kts 279°
2026-05-06 14:24 49.39599 -11.49023 57226 ft 1147 kts 279°
2026-05-06 14:25 49.41925 -11.73143 57340 ft 1147 kts 279°
2026-05-06 14:25 49.44190 -11.97148 57437 ft 1147 kts 279°
2026-05-06 14:26 49.46408 -12.21228 57505 ft 1147 kts 279°
2026-05-06 14:26 49.48575 -12.45301 57566 ft 1147 kts 279°
2026-05-06 14:27 49.50701 -12.69508 57621 ft 1148 kts 278°
2026-05-06 14:27 49.52771 -12.93681 57678 ft 1148 kts 278°
2026-05-06 14:28 49.54803 -13.18007 57729 ft 1147 kts 278°
2026-05-06 14:28 49.56770 -13.42185 57776 ft 1147 kts 278°
2026-05-06 14:29 49.58687 -13.66390 57820 ft 1147 kts 277°
2026-05-06 14:29 49.60555 -13.90635 57870 ft 1147 kts 277°
2026-05-06 14:30 49.62381 -14.14994 57908 ft 1148 kts 277°
2026-05-06 14:30 49.64142 -14.39208 57937 ft 1148 kts 277°
2026-05-06 14:31 49.65857 -14.63498 57607 ft 1144 kts 277°
2026-05-06 14:31 49.66693 -14.75617 57725 ft 1145 kts 276°
2026-05-06 14:31 49.67528 -14.87903 57851 ft 1148 kts 276°
2026-05-06 14:32 49.68976 -15.11868 58009 ft 1150 kts 274°
2026-05-06 14:32 49.69474 -15.24141 58126 ft 1151 kts 275°
2026-05-06 14:32 49.70040 -15.36454 58215 ft 1152 kts 275°
2026-05-06 14:33 49.71116 -15.60896 58376 ft 1153 kts 275°
2026-05-06 14:33 49.72151 -15.85568 58547 ft 1154 kts 274°
2026-05-06 14:34 49.73131 -16.10165 58710 ft 1154 kts 274°
2026-05-06 14:34 49.74056 -16.34744 58893 ft 1154 kts 274°
2026-05-06 14:35 49.74936 -16.59481 59068 ft 1153 kts 274°
2026-05-06 14:35 49.75756 -16.84012 59246 ft 1152 kts 274°
2026-05-06 14:36 49.76522 -17.08516 59425 ft 1152 kts 274°
2026-05-06 14:36 49.77217 -17.32323 59561 ft 1151 kts 274°
2026-05-06 14:37 49.77556 -17.44554 59673 ft 1149 kts 274°
2026-05-06 14:37 49.77882 -17.56837 59881 ft 1147 kts 274°
2026-05-06 14:37 49.78194 -17.69064 60062 ft 1146 kts 273°
2026-05-06 14:37 49.78493 -17.81303 60124 ft 1147 kts 273°
2026-05-06 14:38 49.78781 -17.93609 59968 ft 1148 kts 273°
2026-05-06 14:38 49.79055 -18.05877 60057 ft 1145 kts 273°
2026-05-06 14:38 49.79568 -18.30465 59970 ft 1147 kts 273°
2026-05-06 14:39 49.80022 -18.54896 60111 ft 1146 kts 273°
2026-05-06 14:39 49.80230 -18.67043 59971 ft 1147 kts 272°
2026-05-06 14:39 49.80426 -18.79334 60062 ft 1144 kts 272°
2026-05-06 14:40 49.80782 -19.03915 59982 ft 1147 kts 272°
2026-05-06 14:40 49.81082 -19.28410 60100 ft 1147 kts 272°
2026-05-06 14:41 49.81215 -19.40756 59979 ft 1148 kts 272°
2026-05-06 14:41 49.81334 -19.53009 60070 ft 1146 kts 272°
2026-05-06 14:41 49.81533 -19.77499 59989 ft 1148 kts 271°
2026-05-06 14:42 49.81679 -20.02027 60087 ft 1149 kts 271°
2026-05-06 14:42 49.81731 -20.14395 59962 ft 1150 kts 271°
2026-05-06 14:42 49.81768 -20.26710 60076 ft 1148 kts 271°
2026-05-06 14:43 49.81806 -20.51232 59971 ft 1150 kts 271°
2026-05-06 14:43 49.81792 -20.75753 60072 ft 1151 kts 270°
2026-05-06 14:44 49.81727 -21.00423 60073 ft 1150 kts 270°
2026-05-06 14:45 49.81529 -21.37461 60073 ft 1151 kts 271°
2026-05-06 14:45 49.81332 -21.62127 59974 ft 1152 kts 270°
2026-05-06 14:45 49.81215 -21.74328 60080 ft 1151 kts 270°
2026-05-06 14:46 49.81083 -21.86826 60055 ft 1153 kts 270°
2026-05-06 14:46 49.80783 -22.11348 60090 ft 1152 kts 270°
2026-05-06 14:47 49.80426 -22.36152 59975 ft 1153 kts 270°
2026-05-06 14:47 49.80231 -22.48393 60079 ft 1153 kts 270°
2026-05-06 14:47 49.80019 -22.60853 60043 ft 1155 kts 270°
2026-05-06 14:48 49.79560 -22.85534 60077 ft 1153 kts 269°
2026-05-06 14:48 49.79050 -23.10113 59977 ft 1154 kts 269°
2026-05-06 14:49 49.78486 -23.34799 60022 ft 1156 kts 269°
2026-05-06 14:49 49.77871 -23.59390 60057 ft 1154 kts 269°
2026-05-06 14:50 49.77198 -23.84193 59964 ft 1156 kts 268°
2026-05-06 14:50 49.76477 -24.08854 60003 ft 1157 kts 268°
2026-05-06 14:51 49.75701 -24.33551 60032 ft 1156 kts 268°
2026-05-06 14:51 49.74869 -24.58400 59935 ft 1158 kts 268°
2026-05-06 14:52 49.73986 -24.83109 59976 ft 1159 kts 267°
2026-05-06 14:52 49.73057 -25.07700 60009 ft 1158 kts 267°
2026-05-06 14:53 49.72068 -25.32418 59921 ft 1160 kts 267°
2026-05-06 14:53 49.71027 -25.57185 59960 ft 1161 kts 267°
2026-05-06 14:54 49.69935 -25.81834 59989 ft 1159 kts 266°
2026-05-06 14:54 49.68790 -26.06519 59905 ft 1160 kts 266°
2026-05-06 14:55 49.67584 -26.31382 59934 ft 1162 kts 266°
2026-05-06 14:55 49.66339 -26.55939 59965 ft 1161 kts 266°
2026-05-06 14:56 49.65027 -26.80737 59897 ft 1162 kts 266°
2026-05-06 14:56 49.63671 -27.05390 59924 ft 1163 kts 266°
2026-05-06 14:57 49.62259 -27.30107 59960 ft 1162 kts 266°
2026-05-06 14:57 49.60808 -27.54541 59896 ft 1163 kts 266°
2026-05-06 14:58 49.59293 -27.79208 59919 ft 1164 kts 265°
2026-05-06 14:58 49.57726 -28.03835 59955 ft 1163 kts 265°
2026-05-06 14:59 49.56100 -28.28542 59910 ft 1164 kts 265°
2026-05-06 14:59 49.54427 -28.53159 59955 ft 1165 kts 265°
2026-05-06 15:00 49.52691 -28.77888 59988 ft 1165 kts 264°
2026-05-06 15:00 49.50914 -29.02473 59947 ft 1167 kts 264°
2026-05-06 15:01 49.49080 -29.27100 59976 ft 1168 kts 264°
2026-05-06 15:01 49.47183 -29.51835 59997 ft 1167 kts 264°
2026-05-06 15:02 49.45240 -29.76480 59944 ft 1168 kts 264°
2026-05-06 15:02 49.43226 -30.00950 59979 ft 1167 kts 267°
2026-05-06 15:03 49.41241 -30.25546 60094 ft 1166 kts 264°
2026-05-06 15:03 49.40203 -30.37887 59973 ft 1167 kts 264°
2026-05-06 15:03 49.39168 -30.50199 60030 ft 1166 kts 263°
2026-05-06 15:04 49.37043 -30.74693 59990 ft 1169 kts 263°
2026-05-06 15:04 49.34857 -30.99331 60089 ft 1169 kts 263°
2026-05-06 15:04 49.33749 -31.11603 59984 ft 1170 kts 263°
2026-05-06 15:05 49.32639 -31.23751 60036 ft 1168 kts 263°
2026-05-06 15:05 49.30341 -31.48437 59995 ft 1171 kts 263°
2026-05-06 15:06 49.28014 -31.72859 60092 ft 1171 kts 262°
2026-05-06 15:06 49.25617 -31.97462 60053 ft 1170 kts 262°
2026-05-06 15:07 49.23190 -32.21794 60023 ft 1173 kts 262°
2026-05-06 15:07 49.20747 -32.45781 60111 ft 1172 kts 262°
2026-05-06 15:08 49.18206 -32.70193 60069 ft 1168 kts 261°
2026-05-06 15:08 49.15617 -32.94552 60044 ft 1167 kts 261°
2026-05-06 15:09 49.13007 -33.18623 60130 ft 1167 kts 261°
2026-05-06 15:09 49.10371 -33.42439 60067 ft 1169 kts 261°
2026-05-06 15:10 49.07623 -33.66779 60055 ft 1171 kts 261°
2026-05-06 15:10 49.04815 -33.91176 60136 ft 1171 kts 261°
2026-05-06 15:11 49.01951 -34.15588 60057 ft 1170 kts 261°
2026-05-06 15:11 48.99053 -34.39822 60059 ft 1172 kts 261°
2026-05-06 15:12 48.96097 -34.64080 60141 ft 1171 kts 261°
2026-05-06 15:12 48.93097 -34.88266 60070 ft 1170 kts 260°
2026-05-06 15:13 48.90028 -35.12564 60093 ft 1173 kts 260°
2026-05-06 15:13 48.86929 -35.36665 60148 ft 1172 kts 260°
2026-05-06 15:14 48.83783 -35.60731 60075 ft 1170 kts 260°
2026-05-06 15:14 48.80574 -35.84842 60096 ft 1170 kts 259°
2026-05-06 15:15 48.77313 -36.08946 60165 ft 1168 kts 259°
2026-05-06 15:15 48.74020 -36.32894 60081 ft 1165 kts 259°
2026-05-06 15:16 48.70697 -36.56648 60127 ft 1166 kts 259°
2026-05-06 15:16 48.67294 -36.80602 60182 ft 1164 kts 258°
2026-05-06 15:17 48.63870 -37.04327 60094 ft 1162 kts 258°
2026-05-06 15:17 48.60411 -37.27932 60146 ft 1164 kts 258°
2026-05-06 15:18 48.56864 -37.51763 60192 ft 1162 kts 258°
2026-05-06 15:18 48.53289 -37.75423 60094 ft 1162 kts 257°
2026-05-06 15:18 48.51477 -37.87281 60203 ft 1163 kts 257°
2026-05-06 15:19 48.49663 -37.99068 60162 ft 1164 kts 257°
2026-05-06 15:19 48.45990 -38.22660 60216 ft 1162 kts 257°
2026-05-06 15:20 48.42275 -38.46194 60108 ft 1161 kts 258°
2026-05-06 15:20 48.40396 -38.57961 60219 ft 1162 kts 258°
2026-05-06 15:20 48.38502 -38.69750 60185 ft 1164 kts 257°
2026-05-06 15:21 48.34697 -38.93180 60224 ft 1162 kts 257°
2026-05-06 15:21 48.30818 -39.16724 60116 ft 1162 kts 257°
2026-05-06 15:21 48.28882 -39.28355 60228 ft 1163 kts 257°
2026-05-06 15:22 48.26912 -39.40108 60198 ft 1165 kts 257°
2026-05-06 15:22 48.22951 -39.63500 60229 ft 1163 kts 257°
2026-05-06 15:23 48.18924 -39.86969 60108 ft 1163 kts 256°
2026-05-06 15:23 48.16871 -39.98550 60223 ft 1163 kts 257°
2026-05-06 15:23 48.14919 -40.10311 60302 ft 1164 kts 256°
2026-05-06 15:23 48.12838 -40.21856 60156 ft 1165 kts 256°
2026-05-06 15:24 48.10757 -40.33454 60196 ft 1163 kts 256°
2026-05-06 15:24 48.06593 -40.56706 60166 ft 1163 kts 256°
2026-05-06 15:25 48.02399 -40.79802 60314 ft 1164 kts 255°
2026-05-06 15:25 48.00263 -40.91457 60175 ft 1163 kts 255°
2026-05-06 15:25 47.98140 -41.02959 60200 ft 1161 kts 255°
2026-05-06 15:25 47.95978 -41.14609 60302 ft 1163 kts 255°
2026-05-06 15:26 47.93830 -41.26103 60182 ft 1163 kts 255°
2026-05-06 15:26 47.89463 -41.49276 60311 ft 1163 kts 256°
2026-05-06 15:26 47.87276 -41.60770 60178 ft 1163 kts 256°
2026-05-06 15:27 47.85084 -41.72221 60198 ft 1160 kts 255°
2026-05-06 15:27 47.82882 -41.83657 60317 ft 1163 kts 255°
2026-05-06 15:27 47.80635 -41.95258 60188 ft 1163 kts 255°
2026-05-06 15:28 47.76157 -42.18156 60326 ft 1163 kts 255°
2026-05-06 15:28 47.73901 -42.29591 60191 ft 1162 kts 255°
2026-05-06 15:28 47.71618 -42.41101 60186 ft 1159 kts 255°
2026-05-06 15:28 47.69326 -42.52583 60317 ft 1161 kts 255°
2026-05-06 15:29 47.67037 -42.63982 60209 ft 1161 kts 255°
2026-05-06 15:29 47.62437 -42.86703 60329 ft 1161 kts 254°
2026-05-06 15:29 47.60118 -42.98056 60212 ft 1160 kts 254°
2026-05-06 15:30 47.57762 -43.09522 60198 ft 1157 kts 254°
2026-05-06 15:30 47.55422 -43.20849 60329 ft 1159 kts 254°
2026-05-06 15:30 47.53057 -43.32233 60220 ft 1159 kts 254°
2026-05-06 15:31 47.48329 -43.54796 60339 ft 1158 kts 254°
2026-05-06 15:31 47.45950 -43.66058 60231 ft 1159 kts 253°
2026-05-06 15:31 47.43553 -43.77337 60198 ft 1156 kts 253°
2026-05-06 15:32 47.36285 -44.11168 60201 ft 1156 kts 253°
2026-05-06 15:32 47.33833 -44.22459 60348 ft 1157 kts 253°
2026-05-06 15:32 47.31401 -44.33603 60266 ft 1158 kts 253°
2026-05-06 15:33 47.26458 -44.56057 60343 ft 1156 kts 253°
2026-05-06 15:33 47.21470 -44.78471 60218 ft 1154 kts 253°
2026-05-06 15:34 47.19058 -44.89233 60359 ft 1155 kts 252°
2026-05-06 15:34 47.16612 -45.00084 60314 ft 1157 kts 252°
2026-05-06 15:34 47.11583 -45.22218 60372 ft 1154 kts 252°
2026-05-06 15:35 47.06534 -45.44222 60234 ft 1151 kts 252°
2026-05-06 15:35 47.04004 -45.55159 60354 ft 1151 kts 252°
2026-05-06 15:35 47.01501 -45.65937 60372 ft 1154 kts 252°
2026-05-06 15:36 46.98954 -45.76842 60245 ft 1152 kts 252°
2026-05-06 15:36 46.96400 -45.87717 60361 ft 1151 kts 252°
2026-05-06 15:36 46.91253 -46.09480 60222 ft 1150 kts 252°
2026-05-06 15:37 46.86029 -46.31349 60383 ft 1151 kts 252°
2026-05-06 15:37 46.83395 -46.42292 60246 ft 1150 kts 252°
2026-05-06 15:37 46.80754 -46.53217 60317 ft 1148 kts 252°
2026-05-06 15:38 46.75403 -46.75175 60249 ft 1150 kts 251°
2026-05-06 15:38 46.70061 -46.96890 60397 ft 1152 kts 251°
2026-05-06 15:39 46.67343 -47.07859 60268 ft 1150 kts 251°
2026-05-06 15:39 46.64634 -47.18739 60328 ft 1148 kts 251°
2026-05-06 15:39 46.59176 -47.40499 60252 ft 1149 kts 251°
2026-05-06 15:40 46.53663 -47.62268 60390 ft 1150 kts 251°
2026-05-06 15:40 46.50880 -47.73177 60244 ft 1148 kts 250°
2026-05-06 15:40 46.48107 -47.83998 60347 ft 1148 kts 250°
2026-05-06 15:41 46.42549 -48.05539 60269 ft 1149 kts 250°
2026-05-06 15:41 46.39732 -48.16381 60383 ft 1149 kts 250°
2026-05-06 15:41 46.36919 -48.27159 60404 ft 1151 kts 250°
2026-05-06 15:42 46.34090 -48.37942 60262 ft 1148 kts 250°
2026-05-06 15:42 46.31245 -48.48740 60365 ft 1147 kts 250°
2026-05-06 15:42 46.25542 -48.70235 60316 ft 1147 kts 249°
2026-05-06 15:43 46.19798 -48.91689 60402 ft 1148 kts 249°
2026-05-06 15:43 46.14044 -49.12986 60349 ft 1146 kts 249°
2026-05-06 15:44 46.08243 -49.34266 60306 ft 1148 kts 249°
2026-05-06 15:44 46.02382 -49.55579 60397 ft 1151 kts 249°
2026-05-06 15:45 45.96447 -49.76967 60351 ft 1150 kts 249°
2026-05-06 15:45 45.90468 -49.98165 60303 ft 1151 kts 248°
2026-05-06 15:46 45.84582 -50.19392 60377 ft 1153 kts 249°
2026-05-06 15:46 45.78558 -50.40693 60344 ft 1152 kts 249°
2026-05-06 15:47 45.72574 -50.61716 60309 ft 1153 kts 249°
2026-05-06 15:47 45.66489 -50.82917 60398 ft 1154 kts 248°
2026-05-06 15:48 45.63433 -50.93493 60291 ft 1153 kts 248°
2026-05-06 15:48 45.60398 -51.03948 60322 ft 1152 kts 248°
2026-05-06 15:48 45.54240 -51.25030 60286 ft 1153 kts 248°
2026-05-06 15:49 45.48094 -51.45902 60407 ft 1153 kts 248°
2026-05-06 15:49 45.44989 -51.56377 60299 ft 1152 kts 248°
2026-05-06 15:49 45.41856 -51.66908 60326 ft 1151 kts 247°
2026-05-06 15:50 45.35600 -51.87796 60305 ft 1151 kts 247°
2026-05-06 15:50 45.29371 -52.08428 60434 ft 1151 kts 247°
2026-05-06 15:51 45.26183 -52.18917 60320 ft 1150 kts 247°
2026-05-06 15:51 45.23034 -52.29239 60328 ft 1148 kts 247°
2026-05-06 15:51 45.16669 -52.49979 60335 ft 1148 kts 248°
2026-05-06 15:52 45.11720 -52.71323 60573 ft 1148 kts 251°
2026-05-06 15:52 45.09195 -52.81946 60443 ft 1150 kts 252°
2026-05-06 15:52 45.06687 -52.92567 60283 ft 1144 kts 252°
2026-05-06 15:53 45.04184 -53.03173 60453 ft 1144 kts 252°
2026-05-06 15:53 45.01635 -53.13854 60413 ft 1146 kts 252°
2026-05-06 15:53 44.99114 -53.24397 60272 ft 1142 kts 252°
2026-05-06 15:53 44.96553 -53.35047 60448 ft 1144 kts 252°
2026-05-06 15:54 44.91408 -53.56295 60285 ft 1142 kts 252°
2026-05-06 15:54 44.88839 -53.66824 60443 ft 1144 kts 251°
2026-05-06 15:54 44.86239 -53.77438 60347 ft 1145 kts 251°
2026-05-06 15:55 44.81052 -53.98459 60424 ft 1143 kts 251°
2026-05-06 15:55 44.78447 -54.08946 60306 ft 1143 kts 251°
2026-05-06 15:55 44.75819 -54.19474 60288 ft 1140 kts 251°
2026-05-06 15:56 44.73201 -54.29919 60403 ft 1143 kts 251°
2026-05-06 15:56 44.70556 -54.40422 60299 ft 1143 kts 251°
2026-05-06 15:56 44.65234 -54.61412 60414 ft 1143 kts 251°
2026-05-06 15:57 44.62538 -54.71962 60270 ft 1143 kts 250°
2026-05-06 15:57 44.59872 -54.82358 60337 ft 1142 kts 250°
2026-05-06 15:57 44.54478 -55.03255 60290 ft 1143 kts 250°
2026-05-06 15:58 44.49048 -55.24097 60384 ft 1143 kts 250°
2026-05-06 15:58 44.46286 -55.34630 60276 ft 1141 kts 250°
2026-05-06 15:58 44.43574 -55.44926 60355 ft 1141 kts 250°
2026-05-06 15:59 44.38070 -55.65690 60247 ft 1141 kts 249°
2026-05-06 15:59 44.32577 -55.86232 60353 ft 1143 kts 249°
2026-05-06 16:00 44.27030 -56.06795 60350 ft 1140 kts 249°
2026-05-06 16:00 44.21399 -56.27497 60281 ft 1139 kts 249°
2026-05-06 16:01 44.15757 -56.48063 60355 ft 1140 kts 249°
2026-05-06 16:01 44.10091 -56.68544 60349 ft 1139 kts 249°
2026-05-06 16:02 44.04369 -56.89049 60255 ft 1139 kts 249°
2026-05-06 16:02 43.98656 -57.09355 60295 ft 1139 kts 249°
2026-05-06 16:03 43.92844 -57.29849 60308 ft 1138 kts 249°
2026-05-06 16:03 43.87126 -57.49847 60256 ft 1137 kts 249°
2026-05-06 16:04 43.81387 -57.69759 60286 ft 1139 kts 248°
2026-05-06 16:04 43.75617 -57.89617 60332 ft 1139 kts 248°
2026-05-06 16:05 43.69815 -58.09426 60277 ft 1137 kts 248°
2026-05-06 16:05 43.64003 -58.29119 60281 ft 1139 kts 248°
2026-05-06 16:06 43.58147 -58.48812 60321 ft 1139 kts 248°
2026-05-06 16:06 43.52185 -58.68701 60276 ft 1139 kts 248°
2026-05-06 16:07 43.46154 -58.88672 60279 ft 1139 kts 248°
2026-05-06 16:07 43.40113 -59.08516 60307 ft 1139 kts 248°
2026-05-06 16:08 43.34020 -59.28378 60271 ft 1137 kts 248°
2026-05-06 16:08 43.27923 -59.48105 60267 ft 1138 kts 248°
2026-05-06 16:09 43.21787 -59.67808 60279 ft 1139 kts 247°
2026-05-06 16:09 43.15608 -59.87502 60273 ft 1139 kts 247°
2026-05-06 16:10 43.09021 -60.06993 60322 ft 1139 kts 248°
2026-05-06 16:10 43.02550 -60.26662 60149 ft 1139 kts 245°
2026-05-06 16:11 42.99220 -60.36313 60257 ft 1137 kts 245°
2026-05-06 16:11 42.95893 -60.45984 60359 ft 1142 kts 245°
2026-05-06 16:11 42.92596 -60.55491 60136 ft 1138 kts 245°
2026-05-06 16:11 42.89192 -60.65283 60272 ft 1137 kts 245°
2026-05-06 16:12 42.82442 -60.84595 60145 ft 1137 kts 245°
2026-05-06 16:12 42.79024 -60.94325 60287 ft 1137 kts 245°
2026-05-06 16:12 42.75625 -61.03967 60331 ft 1141 kts 245°
2026-05-06 16:13 42.72201 -61.13642 60147 ft 1138 kts 245°
2026-05-06 16:13 42.68814 -61.23183 60279 ft 1137 kts 245°
2026-05-06 16:13 42.61935 -61.42458 60142 ft 1138 kts 245°
2026-05-06 16:14 42.58458 -61.52153 60286 ft 1139 kts 245°
2026-05-06 16:14 42.55000 -61.61761 60264 ft 1141 kts 245°
2026-05-06 16:14 42.51535 -61.71350 60143 ft 1138 kts 244°
2026-05-06 16:14 42.48058 -61.80942 60292 ft 1139 kts 244°
2026-05-06 16:15 42.41112 -62.00011 60153 ft 1138 kts 244°
2026-05-06 16:15 42.37657 -62.09450 60272 ft 1140 kts 244°
2026-05-06 16:15 42.34206 -62.18843 60214 ft 1141 kts 244°
2026-05-06 16:16 42.27313 -62.37513 60262 ft 1141 kts 244°
2026-05-06 16:16 42.20245 -62.56532 60153 ft 1140 kts 244°
2026-05-06 16:17 42.16689 -62.66053 60258 ft 1142 kts 243°
2026-05-06 16:17 42.13117 -62.75584 60184 ft 1142 kts 243°
2026-05-06 16:17 42.05939 -62.94645 60256 ft 1143 kts 243°
2026-05-06 16:18 41.98771 -63.13549 60190 ft 1142 kts 243°
2026-05-06 16:18 41.91546 -63.32482 60179 ft 1143 kts 243°
2026-05-06 16:19 41.84281 -63.51392 60232 ft 1142 kts 243°
2026-05-06 16:19 41.77031 -63.70143 60209 ft 1140 kts 243°
2026-05-06 16:20 41.69842 -63.88619 60174 ft 1138 kts 243°
2026-05-06 16:20 41.62688 -64.06886 60233 ft 1139 kts 243°
2026-05-06 16:21 41.55413 -64.25348 60199 ft 1138 kts 243°
2026-05-06 16:21 41.48121 -64.43736 60170 ft 1138 kts 243°
2026-05-06 16:22 41.40734 -64.62246 60210 ft 1139 kts 242°
2026-05-06 16:22 41.33440 -64.80412 60211 ft 1138 kts 242°
2026-05-06 16:23 41.26115 -64.98541 60171 ft 1138 kts 242°
2026-05-06 16:23 41.18586 -65.17058 60176 ft 1138 kts 242°
2026-05-06 16:24 41.11088 -65.35389 60169 ft 1139 kts 242°
2026-05-06 16:24 41.03478 -65.53880 60148 ft 1140 kts 242°
2026-05-06 16:25 40.95869 -65.72250 60154 ft 1141 kts 241°
2026-05-06 16:25 40.88238 -65.90564 60156 ft 1142 kts 241°
2026-05-06 16:26 40.80571 -66.08849 60134 ft 1142 kts 241°
2026-05-06 16:26 40.72919 -66.26994 60160 ft 1142 kts 241°
2026-05-06 16:27 40.65142 -66.45321 60136 ft 1142 kts 242°
2026-05-06 16:27 40.57423 -66.63403 60137 ft 1142 kts 242°
2026-05-06 16:28 40.49595 -66.81629 60137 ft 1144 kts 241°
2026-05-06 16:28 40.41797 -66.99683 60125 ft 1144 kts 241°
2026-05-06 16:29 40.34020 -67.17670 60128 ft 1143 kts 241°
2026-05-06 16:29 40.26149 -67.35767 60154 ft 1142 kts 241°
2026-05-06 16:30 40.19627 -67.50682 60131 ft 1139 kts 241°
2026-05-06 16:30 40.10717 -67.70943 60132 ft 1137 kts 240°
2026-05-06 16:31 40.02822 -67.88785 60138 ft 1136 kts 241°
2026-05-06 16:31 39.94990 -68.06387 60187 ft 1135 kts 241°
2026-05-06 16:32 39.87873 -68.24459 60160 ft 1128 kts 254°
2026-05-06 16:32 39.85701 -68.34203 60463 ft 1131 kts 261°
2026-05-06 16:32 39.84426 -68.44199 60434 ft 1134 kts 263°
2026-05-06 16:33 39.83248 -68.54338 60083 ft 1126 kts 261°
2026-05-06 16:33 39.82030 -68.64220 60109 ft 1120 kts 262°
2026-05-06 16:33 39.80835 -68.74200 60271 ft 1123 kts 261°
2026-05-06 16:34 39.78394 -68.94231 60123 ft 1118 kts 261°
2026-05-06 16:34 39.76009 -69.13540 60031 ft 1120 kts 261°
2026-05-06 16:35 39.73527 -69.33356 60145 ft 1123 kts 261°
2026-05-06 16:35 39.72256 -69.43394 60030 ft 1122 kts 261°
2026-05-06 16:35 39.71005 -69.53212 60100 ft 1122 kts 261°
2026-05-06 16:36 39.68483 -69.72780 60013 ft 1122 kts 260°
2026-05-06 16:36 39.65935 -69.92290 60107 ft 1125 kts 260°
2026-05-06 16:36 39.64619 -70.02266 59539 ft 1122 kts 260°
2026-05-06 16:37 39.63329 -70.11973 58324 ft 1102 kts 260°
2026-05-06 16:37 39.62042 -70.21592 57031 ft 1077 kts 260°
2026-05-06 16:37 39.60818 -70.30692 55836 ft 1059 kts 260°
2026-05-06 16:37 39.59658 -70.39266 54708 ft 1044 kts 260°
2026-05-06 16:38 39.58372 -70.48699 53498 ft 1029 kts 261°
2026-05-06 16:38 39.57134 -70.57713 52405 ft 1039 kts 261°
2026-05-06 16:38 39.55865 -70.66926 51477 ft 1046 kts 260°
2026-05-06 16:38 39.54599 -70.76054 50518 ft 1036 kts 261°
2026-05-06 16:39 39.53370 -70.84851 49349 ft 1017 kts 261°
2026-05-06 16:39 39.52143 -70.93587 47999 ft 992 kts 261°
2026-05-06 16:39 39.50929 -71.02187 46624 ft 944 kts 261°
2026-05-06 16:39 39.49812 -71.10007 45098 ft 868 kts 262°
2026-05-06 16:40 39.48838 -71.16845 43554 ft 834 kts 262°
2026-05-06 16:40 39.47625 -71.25339 41439 ft 797 kts 263°
2026-05-06 16:40 39.46578 -71.32598 39573 ft 774 kts 263°
2026-05-06 16:40 39.45620 -71.39264 37921 ft 736 kts 263°
2026-05-06 16:41 39.44756 -71.45160 36251 ft 634 kts 263°
2026-05-06 16:41 39.43996 -71.50431 34449 ft 602 kts 263°
2026-05-06 16:41 39.43262 -71.55524 32760 ft 595 kts 263°
2026-05-06 16:41 39.42516 -71.60663 31204 ft 592 kts 262°
2026-05-06 16:42 39.41930 -71.65813 29607 ft 581 kts 269°
2026-05-06 16:42 39.42429 -71.70879 28177 ft 574 kts 286°
2026-05-06 16:42 39.44127 -71.75538 27718 ft 578 kts 301°
2026-05-06 16:42 39.46515 -71.79718 27965 ft 561 kts 303°
2026-05-06 16:43 39.48796 -71.83624 28296 ft 539 kts 304°
2026-05-06 16:43 39.51121 -71.87493 28664 ft 547 kts 304°
2026-05-06 16:43 39.53432 -71.91314 28015 ft 546 kts 305°
2026-05-06 16:43 39.55768 -71.95156 27945 ft 540 kts 304°
2026-05-06 16:44 39.58041 -71.98897 28101 ft 539 kts 304°
2026-05-06 16:44 39.62704 -72.06567 27968 ft 540 kts 304°
2026-05-06 16:44 39.64963 -72.10369 27986 ft 536 kts 301°
2026-05-06 16:45 39.66991 -72.14425 27992 ft 537 kts 300°
2026-05-06 16:45 39.68963 -72.18449 27969 ft 537 kts 299°
2026-05-06 16:45 39.70919 -72.22504 27965 ft 538 kts 299°
2026-05-06 16:45 39.72842 -72.26515 27968 ft 535 kts 298°
2026-05-06 16:46 39.74774 -72.30576 27961 ft 535 kts 298°
2026-05-06 16:46 39.76732 -72.34688 27958 ft 536 kts 298°
2026-05-06 16:46 39.78696 -72.38828 27944 ft 536 kts 298°
2026-05-06 16:46 39.80647 -72.42944 27957 ft 537 kts 298°
2026-05-06 16:47 39.82604 -72.47081 27940 ft 537 kts 298°
2026-05-06 16:47 39.84561 -72.51215 27948 ft 538 kts 298°
2026-05-06 16:47 39.86506 -72.55351 27947 ft 537 kts 298°
2026-05-06 16:47 39.88451 -72.59468 27937 ft 540 kts 298°
2026-05-06 16:48 39.90396 -72.63602 27933 ft 537 kts 298°
2026-05-06 16:48 39.92335 -72.67725 27941 ft 539 kts 298°
2026-05-06 16:48 39.94071 -72.71426 27934 ft 537 kts 298°
2026-05-06 16:48 39.96180 -72.75928 27931 ft 537 kts 298°
2026-05-06 16:49 39.97889 -72.79577 27945 ft 536 kts 298°
2026-05-06 16:49 39.99837 -72.83746 27939 ft 536 kts 298°
2026-05-06 16:49 40.01782 -72.87910 27919 ft 535 kts 298°
2026-05-06 16:49 40.03592 -72.91781 27937 ft 536 kts 297°
2026-05-06 16:50 40.05545 -72.95981 27950 ft 538 kts 297°
2026-05-06 16:50 40.07429 -73.00035 27909 ft 539 kts 298°
2026-05-06 16:50 40.09361 -73.04192 27903 ft 539 kts 297°
2026-05-06 16:50 40.10651 -73.06973 27913 ft 538 kts 297°
2026-05-06 16:51 40.13164 -73.12399 27890 ft 537 kts 297°
2026-05-06 16:51 40.15117 -73.16615 27919 ft 535 kts 297°
2026-05-06 16:51 40.17053 -73.20806 27893 ft 535 kts 297°
2026-05-06 16:51 40.18956 -73.24928 27898 ft 536 kts 297°
2026-05-06 16:52 40.20885 -73.29123 27897 ft 535 kts 297°
2026-05-06 16:52 40.22777 -73.33229 27134 ft 539 kts 297°
2026-05-06 16:52 40.24662 -73.37331 25556 ft 532 kts 298°
2026-05-06 16:52 40.26521 -73.41385 24021 ft 535 kts 297°
2026-05-06 16:53 40.28361 -73.45412 22600 ft 536 kts 298°
2026-05-06 16:53 40.30624 -73.49156 21188 ft 551 kts 314°
2026-05-06 16:53 40.33682 -73.51902 19876 ft 565 kts 330°
2026-05-06 16:53 40.37157 -73.53517 18631 ft 572 kts 343°
2026-05-06 16:54 40.41108 -73.53913 17312 ft 583 kts
2026-05-06 16:54 40.44878 -73.52778 16609 ft 583 kts 19°
2026-05-06 16:54 40.48328 -73.50245 16054 ft 574 kts 37°
2026-05-06 16:54 40.51026 -73.46639 15503 ft 565 kts 55°
2026-05-06 16:55 40.52755 -73.42163 15329 ft 544 kts 76°
2026-05-06 16:55 40.53323 -73.37667 15368 ft 516 kts 94°
2026-05-06 16:55 40.52855 -73.33298 15344 ft 475 kts 115°
2026-05-06 16:55 40.51456 -73.29709 15242 ft 415 kts 137°
2026-05-06 16:56 40.49582 -73.27515 15147 ft 343 kts 162°
2026-05-06 16:56 40.47457 -73.26724 15049 ft 292 kts 193°
2026-05-06 16:56 40.45620 -73.27438 15057 ft 274 kts 219°
2026-05-06 16:56 40.44419 -73.29074 14449 ft 271 kts 245°
2026-05-06 16:57 40.44067 -73.31432 13634 ft 276 kts 274°
2026-05-06 16:57 40.44677 -73.33521 12930 ft 295 kts 301°
2026-05-06 16:57 40.46252 -73.35362 12111 ft 310 kts 318°
2026-05-06 16:57 40.48053 -73.36869 11181 ft 311 kts 320°
2026-05-06 16:58 40.49750 -73.38231 10288 ft 313 kts 319°
2026-05-06 16:58 40.51568 -73.39693 9313 ft 305 kts 320°
2026-05-06 16:58 40.53300 -73.41102 8338 ft 300 kts 319°
2026-05-06 16:58 40.55005 -73.42487 7378 ft 291 kts 320°
2026-05-06 16:59 40.56665 -73.43856 6428 ft 289 kts 320°
2026-05-06 16:59 40.58316 -73.45225 5459 ft 287 kts 320°
2026-05-06 16:59 40.59952 -73.46542 4480 ft 282 kts 330°
2026-05-06 16:59 40.61883 -73.47100 3679 ft 290 kts 354°
2026-05-06 17:00 40.63915 -73.47014 3246 ft 292 kts
2026-05-06 17:00 40.65914 -73.46724 3043 ft 294 kts
2026-05-06 17:00 40.67921 -73.46315 2927 ft 296 kts 11°
2026-05-06 17:00 40.69831 -73.45358 3041 ft 297 kts 24°
2026-05-06 17:01 40.71714 -73.44163 2995 ft 299 kts 24°
2026-05-06 17:01 40.73580 -73.42989 2979 ft 299 kts 22°
2026-05-06 17:01 40.75498 -73.42460 2995 ft 289 kts 347°
2026-05-06 17:01 40.77301 -73.43306 3061 ft 272 kts 314°
2026-05-06 17:02 40.78447 -73.44980 2977 ft 231 kts 296°
2026-05-06 17:02 40.79301 -73.46687 2933 ft 220 kts 295°
2026-05-06 17:02 40.80094 -73.48317 2987 ft 219 kts 295°
2026-05-06 17:02 40.80902 -73.50024 2950 ft 221 kts 295°
2026-05-06 17:03 40.81713 -73.51755 2814 ft 221 kts 295°
2026-05-06 17:03 40.82235 -73.53567 2655 ft 205 kts 258°
2026-05-06 17:03 40.81952 -73.55345 2799 ft 200 kts 252°
2026-05-06 17:03 40.81625 -73.57140 2735 ft 201 kts 252°
2026-05-06 17:04 40.81304 -73.58887 2598 ft 204 kts 252°
2026-05-06 17:04 40.80965 -73.60690 2464 ft 201 kts 252°
2026-05-06 17:04 40.80621 -73.62487 2429 ft 202 kts 252°
2026-05-06 17:04 40.80283 -73.64241 2460 ft 202 kts 252°
2026-05-06 17:05 40.79706 -73.65817 2483 ft 194 kts 218°
2026-05-06 17:05 40.78553 -73.66734 2526 ft 196 kts 209°
2026-05-06 17:05 40.77372 -73.67589 2466 ft 197 kts 210°
2026-05-06 17:05 40.76229 -73.68424 2381 ft 192 kts 209°
2026-05-06 17:06 40.75095 -73.69236 2263 ft 192 kts 209°
2026-05-06 17:06 40.73957 -73.70049 2137 ft 185 kts 210°
2026-05-06 17:06 40.72845 -73.70840 1916 ft 180 kts 210°
2026-05-06 17:06 40.71735 -73.71628 1687 ft 187 kts 209°
2026-05-06 17:07 40.70606 -73.72430 1447 ft 188 kts 209°
2026-05-06 17:07 40.69466 -73.73192 1207 ft 189 kts 205°
2026-05-06 17:07 40.68263 -73.73901 893 ft 193 kts 205°
2026-05-06 17:07 40.67099 -73.74735 560 ft 195 kts 210°
2026-05-06 17:08 40.65919 -73.75682 364 ft 204 kts 208°
2026-05-06 17:08 40.64707 -73.76608 120 ft 201 kts 208°
2026-05-06 17:08 40.63620 -73.77455 19 ft 159 kts 210°
2026-05-06 17:08 40.63036 -73.77904 16 ft 53 kts 211°
2026-05-06 17:09 40.62761 -73.78120 16 ft 32 kts 213°
2026-05-06 17:09 40.62645 -73.78271 13 ft 21 kts 258°
2026-05-06 17:09 40.62680 -73.78355 13 ft 0 kts
2026-05-06 17:11 40.62703 -73.78348 13 ft 10 kts 16°
2026-05-06 17:11 40.62798 -73.78284 14 ft 21 kts 32°
2026-05-06 17:11 40.62942 -73.78168 15 ft 23 kts 30°
2026-05-06 17:11 40.63051 -73.78084 16 ft 10 kts 29°
2026-05-06 17:12 40.63071 -73.78068 16 ft 0 kts 30°
2026-05-06 17:12 40.63166 -73.78019 16 ft 20 kts
2026-05-06 17:12 40.63295 -73.77984 16 ft 17 kts 20°
2026-05-06 17:13 40.63380 -73.77976 16 ft 10 kts 311°
2026-05-06 17:13 40.63453 -73.78136 16 ft 27 kts 300°
2026-05-06 17:13 40.63551 -73.78264 17 ft 16 kts 13°
2026-05-06 17:13 40.63610 -73.78254 18 ft 8 kts
2026-05-06 17:14 40.63702 -73.78265 19 ft 15 kts 352°
2026-05-06 17:14 40.63782 -73.78249 19 ft 9 kts 62°
2026-05-06 17:14 40.63792 -73.78185 19 ft 0 kts 83°
2026-05-06 17:14 40.63792 -73.78181 19 ft 0 kts 83°